This is the latest recevied weather packets stored in our database for station/object KJ4EBE. If no packets are shown the sender has not sent any weather packets the latest 10 day(s).
| Time | Temp. | Humidity | Pressure | Rain* | Wind** | Luminosity | Snow |
|---|---|---|---|---|---|---|---|
| 1777513772 | 15° C | 98% | 1012.6 hPa | 0 mm | - | 0 W/m² | - |
| 1777513469 | 15° C | 98% | 1012.5 hPa | 0 mm | - | 0 W/m² | - |
| 1777513166 | 15° C | 98% | 1012.8 hPa | 0 mm | - | 0 W/m² | - |
| 1777512861 | 15° C | 98% | 1012.9 hPa | 0 mm | - | 0 W/m² | - |
| 1777512558 | 15° C | 98% | 1013.2 hPa | 0 mm | - | 0 W/m² | - |
| 1777512255 | 15° C | 98% | 1013.2 hPa | 0 mm | - | 0 W/m² | - |
| 1777511952 | 15° C | 99% | 1013.3 hPa | 0 mm | - | 0 W/m² | - |
| 1777511649 | 15° C | 98% | 1013.2 hPa | 0 mm | - | 0 W/m² | - |
| 1777511342 | 15° C | 98% | 1012.9 hPa | 0 mm | - | 1 W/m² | - |
| 1777511037 | 15° C | 98% | 1012.8 hPa | 0 mm | - | 1 W/m² | - |
| 1777510734 | 15° C | 98% | 1012.8 hPa | 0 mm | - | 2 W/m² | - |
| 1777510431 | 15° C | 98% | 1012.8 hPa | 0 mm | - | 3 W/m² | - |
| 1777510126 | 15° C | 98% | 1012.6 hPa | 0 mm | - | 3 W/m² | - |
| 1777509824 | 15° C | 98% | 1012.6 hPa | 0 mm | - | 4 W/m² | - |
| 1777509518 | 15° C | 98% | 1012.5 hPa | 0 mm | - | 5 W/m² | - |
| 1777509216 | 15° C | 98% | 1012.3 hPa | 0 mm | - | 8 W/m² | - |
| 1777508913 | 15° C | 98% | 1012.4 hPa | 0 mm | - | 8 W/m² | - |
| 1777508609 | 15° C | 97% | 1012.4 hPa | 0 mm | - | 10 W/m² | - |
| 1777508302 | 15° C | 97% | 1012.6 hPa | 0 mm | - | 9 W/m² | - |
| 1777507999 | 15° C | 97% | 1012.6 hPa | 0 mm | - | 13 W/m² | - |
| 1777507695 | 15.56° C | 96% | 1012.5 hPa | 0 mm | - | 15 W/m² | - |
| 1777507392 | 15.56° C | 96% | 1012.5 hPa | 0 mm | - | 18 W/m² | - |
| 1777507090 | 15.56° C | 95% | 1012.2 hPa | 0 mm | - | 27 W/m² | - |
| 1777506787 | 15.56° C | 95% | 1012.3 hPa | 0 mm | - | 28 W/m² | - |
| 1777506484 | 15.56° C | 95% | 1012.3 hPa | 0 mm | - | 12 W/m² | - |
* Rain latest hour (hover to see other rain measurements)
** Current wind speed in m/s (hover to see current wind gust speed)